Location: Glött
(48.4999°N, 10.4847°E)
Time: 22:57:14
(UTC+00:00)

Daily predictions for brighter satellites

Satellite Brightness Start Highest point End
(mag) Time Altitude Azimuth Time Altitude Azimuth Time Altitude Azimuth
Thor Agena Rocket 3.8 15:48:35 10° SE 15:53:31 46° ENE 15:58:27 10° N
BlueWalker 3 2.0 15:52:29 10° WNW 15:56:07 76° SSW 15:59:44 10° SE
Cosmos 1356 Rocket 3.3 15:54:09 10° S 15:58:11 82° ESE 16:02:19 10° NNE
Meteor 1-28 Rocket 3.4 15:56:53 10° NNE 16:00:06 41° E 16:03:16 10° S
Cosmos 2026 Rocket 4.4 15:55:15 10° NNW 16:01:28 73° W 16:07:45 10° S
Cosmos 1544 Rocket 4.0 15:58:59 10° SSE 16:03:09 43° E 16:07:21 10° NNE
Cosmos 1484 Rocket 2.4 16:00:22 10° SSE 16:03:51 78° ENE 16:07:23 10° N
Cosmos 1697 Rocket 4.0 16:00:39 10° SE 16:04:34 20° E 16:08:30 10° NE
NOSS 2-2 (E) 3.3 16:01:49 10° SSW 16:05:06 43° SE 16:08:00 10° NE
BREEZE M DEB (TANK) 4.1 15:49:20 10° WNW 16:06:56 84° SSW 16:11:14 10° ESE
Cosmos 1634 Rocket 4.0 16:03:01 10° S 16:09:12 85° E 16:15:24 10° N
Intercosmos 24 3.6 16:05:22 10° N 16:09:17 65° ENE 16:12:48 10° SSE
Cosmos 405 Rocket 2.1 16:06:13 10° N 16:09:29 79° E 16:12:42 10° SSE
Okean 1-7 Rocket 4.4 16:07:53 10° N 16:11:41 27° ENE 16:15:25 10° SE
Lacrosse 5 rocket 1.8 16:09:18 10° W 16:12:54 42° NNW 16:16:22 10° NE
Cosmos 1461 3.9 16:14:03 10° S 16:17:17 26° ESE 16:20:09 12° ENE
CENTAUR R/B 3.1 16:11:53 10° WSW 16:17:34 54° NW 16:24:45 10° NE
Cosmos 1777 Rocket 4.5 16:14:48 10° S 16:19:41 41° ESE 16:24:35 10° NE
Meteor 1-20 Rocket 4.4 16:15:31 10° N 16:20:48 47° ENE 16:26:03 10° SSE
Cosmos 1455 Rocket 4.5 16:17:33 10° SW 16:21:35 38° WNW 16:25:41 10° N
Cosmos 1602 Rocket 3.7 16:19:12 10° N 16:23:30 49° ENE 16:27:43 10° SSE
Cosmos 2279 Rocket 4.0 16:17:36 10° S 16:23:47 77° E 16:30:03 10° NNE
Cosmos 1570 Rocket 4.5 16:21:40 10° NNW 16:26:59 68° WSW 16:32:14 10° S
IRIDIUM 103 4.5 16:23:37 10° N 16:28:44 52° E 16:33:49 10° SSE
SMAP 3.0 16:25:28 10° SSE 16:30:06 74° ENE 16:34:46 10° N
Cosmos 1656 3.7 16:26:02 10° SSW 16:31:38 84° ESE 16:37:22 10° NNE
UNK 3.7 16:28:26 10° NNE 16:33:01 65° ESE 16:37:32 10° S
YAOGAN 1 3.8 16:31:02 10° ESE 16:34:09 20° ENE 16:37:15 10° NNE
Cosmos 2228 3.8 16:31:02 10° SSW 16:35:09 51° WNW 16:39:19 10° N
Landsat 7 3.7 16:31:00 10° SSE 16:35:36 65° ENE 16:40:14 10° N
NOSS 2-2 (C) 4.0 16:32:43 10° WSW 16:35:38 33° NW 16:38:06 12° NNE
SAR-Lupe-4 3.6 16:32:27 10° SSE 16:35:55 56° ENE 16:39:25 10° N
Cosmos 1867 3.7 16:31:11 10° NNW 16:36:34 55° NE 16:41:55 10° SE
Cosmos 1486 Rocket 4.0 16:31:30 10° SSW 16:36:40 72° ESE 16:41:55 10° NNE
Cosmos 2297 Rocket 2.2 16:34:51 10° NNW 16:40:34 89° WSW 16:46:14 10° SSE
USA 290 2.1 16:37:18 10° NNW 16:40:35 87° ENE 16:43:50 10° SSE
USA 215 3.9 16:35:28 14° ENE 16:40:39 42° N 16:46:45 10° WNW
Cosmos 2180 Rocket 4.4 16:35:14 10° S 16:41:20 74° E 16:47:28 10° NNE
Cosmos 773 Rocket 4.4 16:38:37 10° NNW 16:43:48 68° WSW 16:48:59 10° S
SAR-Lupe-1 4.0 16:41:24 10° SSE 16:44:58 62° ENE 16:48:33 10° N
Cosmos 1782 2.9 16:41:58 10° SSW 16:45:32 65° W 16:49:08 10° N
Cosmos 1953 Rocket 4.4 16:42:28 10° NNE 16:46:17 28° ENE 16:50:07 10° SE
IRIDIUM 106 4.2 16:41:52 10° N 16:47:07 74° E 16:52:19 10° S
ATLAS CENTAUR R/B 2.0 16:44:26 10° NW 16:47:32 42° WSW 16:50:31 10° SSE
CZ-4C R/B 2.9 16:41:44 10° NW 16:48:36 80° NE 16:57:13 10° SE
Cosmos 1607 4.0 16:43:36 10° NW 16:49:51 84° SW 16:56:09 10° SSE
Cosmos 1733 4.3 16:48:53 10° NW 16:50:05 18° W 16:51:16 10° SW
CZ-2D R/B 2.6 16:48:21 10° SSE 16:51:29 83° ENE 16:54:39 10° NNW
IRS-P3 4.0 16:49:08 10° SSE 16:54:24 68° ENE 16:59:42 10° N
Lacrosse 4 Rocket 3.6 16:52:48 10° W 16:55:36 18° NW 16:58:23 10° N
ARIANE 5 R/B 2.5 16:51:07 10° SSE 16:56:10 85° WSW 17:01:20 10° NNW
Meteor 1-25 Rocket 4.2 16:50:21 10° N 16:56:11 71° ENE 17:01:56 10° SSE
Cosmos 990 Rocket 4.3 16:51:50 10° S 16:56:38 42° ESE 16:59:47 20° NE
Cosmos 2219 4.0 16:52:14 10° NNW 16:57:13 29° NE 16:59:37 22° E
Cosmos 1825 Rocket 3.5 16:52:59 10° N 16:57:17 55° ENE 17:01:31 10° SSE
NOSS 2-3 (E) 4.3 16:55:50 10° S 16:58:52 25° ESE 16:59:21 24° ESE
Cosmos 2266 Rocket 3.9 16:53:29 10° N 16:59:42 88° E 17:05:46 10° S
NOSS 2-3 (D) 4.3 16:57:50 10° S 17:00:53 24° ESE 17:01:12 24° ESE
Cosmos 2098 Rocket 3.6 16:57:58 10° SSW 17:01:58 59° WNW 17:06:44 10° N
Meteor 1-5 Rocket 4.2 16:58:27 10° N 17:03:41 53° ENE 17:08:59 10° SSE
Cosmos 2151 3.3 17:00:44 10° NNW 17:04:51 64° W 17:08:58 10° S
Cosmos 1743 3.7 17:02:24 10° NNW 17:05:30 40° W 17:08:32 10° SSW
SPOT 1/Viking Rocket 3.5 17:01:01 10° SSE 17:06:07 59° ENE 17:11:15 10° N
Cosmos 1980 Rocket 3.1 17:02:08 10° SSE 17:06:51 28° ESE 17:08:00 26° E
Cosmos 1844 Rocket 4.3 17:08:00 10° N 17:10:59 16° NNE 17:10:59 16° NNE
SL-16 R/B 3.8 17:09:49 10° N 17:15:34 40° WNW 17:21:15 10° SW
Cosmos 2058 Rocket 4.1 17:11:46 10° SSE 17:14:42 27° ESE 17:14:42 27° ESE
Cosmos 2263 Rocket 2.3 17:13:25 10° NNW 17:18:58 52° NE 17:23:09 17° SE
NOSS 3-2 (C) 3.1 17:14:24 10° SW 17:19:28 86° NW 17:23:02 25° NE
NOSS 3-2 (A) 4.0 17:14:53 10° WSW 17:19:52 45° NW 17:24:05 19° NNE
CZ-4 R/B 4.2 17:19:05 10° SSE 17:23:01 86° E 17:27:00 10° NNW
GEOS 3 Rocket 4.3 17:19:36 19° NNE 17:23:21 52° NW 17:28:32 10° WSW
MOS 1 Rocket 3.8 17:18:38 10° S 17:23:28 67° W 17:28:36 10° NNW
BREEZE M DEB (TANK) 2.9 17:23:47 10° WSW 17:25:20 38° SW 17:25:20 38° SW
Cosmos 1076 Rocket 3.3 17:22:20 10° N 17:26:39 71° E 17:30:57 10° SSE
Cosmos 1933 3.5 17:24:17 10° SSW 17:28:05 67° W 17:30:45 19° N
Cosmos 1606 Rocket 3.7 17:27:11 10° SSW 17:31:33 73° W 17:35:23 14° N
Cosmos 2084 Rocket 4.3 17:27:32 10° NW 17:31:37 49° SW 17:35:41 10° SSE
Cosmos 2227 Rocket 2.2 17:26:04 10° NNW 17:31:45 81° WSW 17:37:23 10° SSE
Cosmos 1538 Rocket 4.0 17:27:28 10° NNW 17:32:43 62° ENE 17:36:28 19° SE
PSLV R/B 3.2 17:36:04 65° ENE 17:36:07 65° ENE 17:40:08 10° N
CZ-2D R/B 3.4 17:32:41 10° SSE 17:36:54 88° W 17:41:05 10° NNW
COSMO-SKYMED 1 2.5 17:39:14 57° SE 17:39:14 57° SE 17:42:55 10° S
Meteor 2-2 Rocket 4.4 17:34:54 10° SSE 17:40:15 46° E 17:40:35 46° E
SL-19 R/B 4.1 17:35:12 10° SSE 17:40:32 75° ENE 17:46:12 10° NNW
Resurs 1-3 3.4 17:36:37 10° SSE 17:40:54 82° ENE 17:45:14 10° NNW
Cosmos 1244 Rocket 4.4 17:35:44 10° N 17:41:58 59° ENE 17:48:05 10° SSE
BREEZE-M DEB (TANK) 3.9 17:40:24 10° WNW 17:44:05 89° SSW 17:48:33 32° ESE
Meteor 2-20 4.3 17:41:00 10° S 17:47:10 85° E 17:53:21 10° N
Cosmos 1697 Rocket 2.8 17:42:18 10° SW 17:47:53 73° WNW 17:50:44 30° NNE
Lacrosse 5 rocket 3.0 17:47:41 10° WNW 17:49:58 21° NNW 17:49:58 21° NNW
Cosmos 1354 Rocket 4.4 17:45:24 10° SW 17:50:37 62° WNW 17:53:34 26° N
BREEZE-M DEB (TANK) 4.3 17:49:29 10° WNW 17:53:23 68° NNE 17:57:03 38° E
Cosmos 1461 3.7 17:50:11 10° WSW 17:53:53 40° NW 17:54:18 39° NNW
Spot 4 Rocket 4.1 17:49:34 10° S 17:54:40 74° WSW 17:59:48 10° NNW
IRAS Rocket 4.1 17:50:19 10° SSE 17:55:49 86° WSW 18:01:20 10° NNW
Cosmos 1726 Rocket 4.3 17:52:19 10° SSW 17:56:53 56° WNW 17:59:49 21° N
SL-08 R/B 4.4 17:53:57 10° N 18:00:16 67° ENE 18:06:34 10° SSE
Cosmos 1655 Rocket 4.4 17:54:47 10° NNW 18:00:56 62° W 18:07:02 10° S
SKYMED 2 4.2 17:59:36 33° N 18:01:19 55° WNW 18:05:34 10° SSW
Gbstr 26 Del rocket 3.5 17:59:44 10° WSW 18:02:38 47° SW 18:02:38 47° SW
Cosmos 1898 Rocket 4.1 17:59:49 10° S 18:03:17 40° SSE 18:03:17 40° SSE
Meteor 2-10 4.2 18:02:56 10° NNW 18:08:16 74° W 18:13:45 10° S
Meteor 2-20 Rocket 4.3 18:03:02 10° S 18:09:18 88° ESE 18:12:29 31° N
YAOGAN 1 3.4 18:05:33 10° S 18:09:40 49° W 18:13:49 10° NNW
CENTAUR R/B 4.1 18:04:21 10° WNW 18:09:54 27° N 18:12:28 23° NNE
USA 281 4.5 18:17:15 25° NNE 18:17:15 25° NNE 18:20:36 10° NNW
Cosmos 2082 3.8 18:12:04 10° NNW 18:17:04 66° N 18:17:04 66° N
Meteor 1-26 Rocket 4.0 18:12:55 10° S 18:18:03 81° SSW 18:18:03 81° SSW
USA 238 DEB 3.3 18:13:27 10° SW 18:19:33 82° SE 18:19:57 77° ENE
USA 238 3.3 18:13:33 10° SW 18:19:40 81° SE 18:20:02 78° E
USA 215 3.3 18:22:49 57° NNE 18:23:02 58° NNE 18:29:27 10° NW
Cosmos 372 Rocket 4.4 18:22:19 10° SSW 18:26:26 56° SW 18:26:26 56° SW
Aureole 1 Rocket 4.1 18:24:13 10° SSW 18:27:16 45° SW 18:27:16 45° SW
Cosmos 2219 3.6 18:36:05 10° NNW 18:41:35 60° WSW 18:41:35 60° WSW
Cosmos 1980 Rocket 2.9 18:45:00 10° SW 18:49:48 51° W 18:49:48 51° W
Cosmos 2263 Rocket 3.9 18:57:46 10° NW 19:02:35 29° WSW 19:04:58 22° SW
